Time,TemperatureF,DewpointF,PressureIn,WindDirection,WindDirectionDegrees,WindSpeedMPH,WindSpeedGustMPH,Humidity,HourlyPrecipIn,Conditions,Clouds,dailyrainin,SoftwareType,DateUTC
2013-07-29 00:05:00,66.3,63.9,29.63,South,185,5.0,5.0,92,0.00,,,0.00,Wunderground v.1.15,2013-07-29 04:05:00,
2013-07-29 00:10:00,66.2,63.8,29.63,WSW,240,4.0,4.0,92,0.00,,,0.00,Wunderground v.1.15,2013-07-29 04:10:00,
2013-07-29 00:15:00,66.1,64.0,29.63,SSW,200,3.0,4.0,93,0.00,,,0.00,Wunderground v.1.15,2013-07-29 04:15:00,
2013-07-29 00:20:00,65.9,63.8,29.63,South,183,3.0,3.0,93,0.00,,,0.00,Wunderground v.1.15,2013-07-29 04:20:00,
2013-07-29 00:25:00,65.8,63.7,29.63,SSW,192,4.0,4.0,93,0.00,,,0.00,Wunderground v.1.15,2013-07-29 04:25:00,
2013-07-29 00:34:00,65.6,63.8,29.63,South,182,3.0,4.0,94,0.15,,,0.02,Wunderground v.1.15,2013-07-29 04:34:00,
2013-07-29 00:40:00,65.5,63.7,29.63,South,178,3.0,3.0,94,0.06,,,0.02,Wunderground v.1.15,2013-07-29 04:40:00,
2013-07-29 00:50:00,65.4,63.9,29.63,SSW,194,1.0,1.0,95,0.05,,,0.03,Wunderground v.1.15,2013-07-29 04:50:00,
2013-07-29 00:55:00,65.3,63.8,29.63,SSW,193,0.0,1.0,95,0.08,,,0.04,Wunderground v.1.15,2013-07-29 04:55:00,
2013-07-29 01:00:00,65.3,63.8,29.63,South,190,1.0,3.0,95,0.07,,,0.04,Wunderground v.1.15,2013-07-29 05:00:00,
2013-07-29 01:05:00,65.3,63.8,29.63,East,96,1.0,3.0,95,0.65,,,0.11,Wunderground v.1.15,2013-07-29 05:05:00,
2013-07-29 01:15:00,65.1,63.9,29.63,SW,215,2.0,5.0,96,0.09,,,0.13,Wunderground v.1.15,2013-07-29 05:15:00,
2013-07-29 01:25:00,65.1,63.9,29.63,South,190,4.0,4.0,96,0.05,,,0.13,Wunderground v.1.15,2013-07-29 05:25:00,
2013-07-29 01:30:00,65.0,63.8,29.63,SSW,195,4.0,7.0,96,0.00,,,0.13,Wunderground v.1.15,2013-07-29 05:30:00,
2013-07-29 01:40:00,65.1,63.9,29.63,South,178,5.0,5.0,96,0.00,,,0.13,Wunderground v.1.15,2013-07-29 05:40:00,
2013-07-29 01:50:00,65.0,63.8,29.63,South,177,4.0,4.0,96,0.00,,,0.13,Wunderground v.1.15,2013-07-29 05:50:00,
2013-07-29 01:55:00,65.0,63.8,29.62,SSE,159,4.0,4.0,96,0.00,,,0.13,Wunderground v.1.15,2013-07-29 05:55:00,
2013-07-29 02:05:00,65.0,63.8,29.62,South,188,4.0,4.0,96,0.00,,,0.13,Wunderground v.1.15,2013-07-29 06:05:00,
2013-07-29 02:10:00,65.0,63.8,29.62,South,178,4.0,4.0,96,0.00,,,0.13,Wunderground v.1.15,2013-07-29 06:10:00,
2013-07-29 02:20:00,65.0,63.8,29.62,SSW,206,2.0,4.0,96,0.00,,,0.13,Wunderground v.1.15,2013-07-29 06:20:00,
2013-07-29 02:30:00,65.0,63.8,29.62,South,180,3.0,4.0,96,0.00,,,0.13,Wunderground v.1.15,2013-07-29 06:30:00,
2013-07-29 02:40:00,65.0,63.8,29.62,South,188,3.0,3.0,96,0.00,,,0.13,Wunderground v.1.15,2013-07-29 06:40:00,
2013-07-29 02:50:00,65.0,63.8,29.62,South,171,2.0,2.0,96,0.00,,,0.13,Wunderground v.1.15,2013-07-29 06:50:00,
2013-07-29 03:00:00,65.0,63.8,29.62,South,186,2.0,2.0,96,0.00,,,0.13,Wunderground v.1.15,2013-07-29 07:00:00,
2013-07-29 03:10:00,64.9,63.7,29.62,South,181,1.0,1.0,96,0.00,,,0.13,Wunderground v.1.15,2013-07-29 07:10:00,
2013-07-29 03:20:00,65.0,63.8,29.62,South,175,2.0,2.0,96,0.00,,,0.13,Wunderground v.1.15,2013-07-29 07:20:00,
2013-07-29 03:25:00,65.0,63.8,29.63,South,175,1.0,2.0,96,0.00,,,0.13,Wunderground v.1.15,2013-07-29 07:25:00,
2013-07-29 03:30:00,64.9,63.7,29.63,South,175,1.0,1.0,96,0.00,,,0.13,Wunderground v.1.15,2013-07-29 07:30:00,
2013-07-29 03:40:00,64.9,64.0,29.62,South,175,0.0,1.0,97,0.00,,,0.13,Wunderground v.1.15,2013-07-29 07:40:00,
2013-07-29 03:45:00,64.9,64.0,29.63,South,175,0.0,1.0,97,0.00,,,0.13,Wunderground v.1.15,2013-07-29 07:45:00,
2013-07-29 03:50:00,64.9,64.0,29.63,South,181,1.0,1.0,97,0.00,,,0.13,Wunderground v.1.15,2013-07-29 07:50:00,
2013-07-29 03:55:00,64.9,64.0,29.63,South,178,2.0,2.0,97,0.00,,,0.13,Wunderground v.1.15,2013-07-29 07:55:00,
2013-07-29 04:05:00,64.9,64.0,29.63,SSW,192,2.0,3.0,97,0.00,,,0.13,Wunderground v.1.15,2013-07-29 08:05:00,
2013-07-29 04:10:00,64.9,64.0,29.63,SW,217,2.0,2.0,97,0.00,,,0.13,Wunderground v.1.15,2013-07-29 08:10:00,
2013-07-29 04:15:00,64.9,64.0,29.63,SSW,205,2.0,2.0,97,0.00,,,0.13,Wunderground v.1.15,2013-07-29 08:15:00,
2013-07-29 04:25:00,64.8,63.6,29.63,South,173,1.0,3.0,96,0.00,,,0.13,Wunderground v.1.15,2013-07-29 08:25:00,
2013-07-29 04:35:00,64.6,63.7,29.63,South,173,0.0,0.0,97,0.00,,,0.13,Wunderground v.1.15,2013-07-29 08:35:00,
2013-07-29 04:45:00,64.6,63.7,29.63,South,173,1.0,1.0,97,0.00,,,0.13,Wunderground v.1.15,2013-07-29 08:45:00,
2013-07-29 04:50:00,64.6,63.7,29.63,South,173,1.0,1.0,97,0.00,,,0.13,Wunderground v.1.15,2013-07-29 08:50:00,
2013-07-29 04:55:00,64.6,63.7,29.64,South,173,1.0,1.0,97,0.00,,,0.13,Wunderground v.1.15,2013-07-29 08:55:00,
2013-07-29 05:00:00,64.6,63.7,29.64,South,173,1.0,1.0,97,0.00,,,0.13,Wunderground v.1.15,2013-07-29 09:00:00,
2013-07-29 05:10:00,64.5,63.6,29.63,South,176,0.0,0.0,97,0.00,,,0.13,Wunderground v.1.15,2013-07-29 09:10:00,
2013-07-29 05:20:00,64.5,63.6,29.64,South,176,0.0,0.0,97,0.00,,,0.13,Wunderground v.1.15,2013-07-29 09:20:00,
2013-07-29 05:30:00,64.4,63.5,29.64,South,176,0.0,0.0,97,0.00,,,0.13,Wunderground v.1.15,2013-07-29 09:30:00,
2013-07-29 05:40:00,64.4,63.5,29.64,East,90,0.0,0.0,97,0.00,,,0.13,Wunderground v.1.15,2013-07-29 09:40:00,
2013-07-29 05:50:00,64.1,62.9,29.64,NNW,348,0.0,0.0,96,0.00,,,0.13,Wunderground v.1.15,2013-07-29 09:50:00,
2013-07-29 06:00:00,63.6,62.4,29.65,NNW,346,2.0,2.0,96,0.00,,,0.13,Wunderground v.1.15,2013-07-29 10:00:00,
2013-07-29 06:10:00,63.2,62.0,29.65,North,5,3.0,4.0,96,0.00,,,0.13,Wunderground v.1.15,2013-07-29 10:10:00,
2013-07-29 06:20:00,62.8,61.3,29.65,North,5,2.0,4.0,95,0.00,,,0.13,Wunderground v.1.15,2013-07-29 10:20:00,
2013-07-29 06:30:00,62.6,61.1,29.65,North,9,2.0,4.0,95,0.00,,,0.13,Wunderground v.1.15,2013-07-29 10:30:00,
2013-07-29 06:40:00,62.7,61.2,29.65,North,360,2.0,2.0,95,0.00,,,0.13,Wunderground v.1.15,2013-07-29 10:40:00,
2013-07-29 06:55:00,63.1,61.9,29.65,NNW,338,1.0,1.0,96,0.00,,,0.13,Wunderground v.1.15,2013-07-29 10:55:00,
2013-07-29 07:00:00,63.1,61.6,29.66,NNW,338,1.0,1.0,95,0.00,,,0.13,Wunderground v.1.15,2013-07-29 11:00:00,
2013-07-29 07:05:00,63.2,61.7,29.66,NNW,338,0.0,1.0,95,0.00,,,0.13,Wunderground v.1.15,2013-07-29 11:05:00,
2013-07-29 07:10:00,63.4,61.9,29.66,NNW,338,0.0,0.0,95,0.00,,,0.13,Wunderground v.1.15,2013-07-29 11:10:00,
2013-07-29 07:20:00,63.5,62.0,29.66,NNE,22,1.0,2.0,95,0.00,,,0.13,Wunderground v.1.15,2013-07-29 11:20:00,
2013-07-29 07:30:00,63.8,62.3,29.66,NNE,22,1.0,3.0,95,0.00,,,0.13,Wunderground v.1.15,2013-07-29 11:30:00,
2013-07-29 07:40:00,64.2,62.7,29.67,NNE,22,1.0,3.0,95,0.00,,,0.13,Wunderground v.1.15,2013-07-29 11:40:00,
2013-07-29 07:55:00,65.7,64.2,29.66,NNE,23,2.0,3.0,95,0.00,,,0.13,Wunderground v.1.15,2013-07-29 11:55:00,
2013-07-29 08:00:00,66.1,64.0,29.66,NNE,16,3.0,3.0,93,0.00,,,0.13,Wunderground v.1.15,2013-07-29 12:00:00,
2013-07-29 08:05:00,66.3,63.9,29.66,NNE,16,3.0,3.0,92,0.00,,,0.13,Wunderground v.1.15,2013-07-29 12:05:00,
2013-07-29 08:10:00,66.7,64.3,29.66,NNE,15,2.0,3.0,92,0.00,,,0.13,Wunderground v.1.15,2013-07-29 12:10:00,
2013-07-29 08:15:00,67.1,64.4,29.66,NNE,15,1.0,3.0,91,0.00,,,0.13,Wunderground v.1.15,2013-07-29 12:15:00,
2013-07-29 08:25:00,67.4,63.4,29.66,NNE,15,1.0,1.0,87,0.00,,,0.13,Wunderground v.1.15,2013-07-29 12:25:00,
2013-07-29 08:30:00,67.8,64.1,29.66,NNE,15,1.0,2.0,88,0.00,,,0.13,Wunderground v.1.15,2013-07-29 12:30:00,
2013-07-29 08:35:00,67.7,64.0,29.67,NNE,16,1.0,2.0,88,0.00,,,0.13,Wunderground v.1.15,2013-07-29 12:35:00,
2013-07-29 08:45:00,68.4,64.0,29.67,NNE,17,1.0,1.0,86,0.00,,,0.13,Wunderground v.1.15,2013-07-29 12:45:00,
2013-07-29 08:55:00,67.8,63.1,29.66,NNE,17,1.0,1.0,85,0.00,,,0.13,Wunderground v.1.15,2013-07-29 12:55:00,
2013-07-29 09:05:00,69.1,65.4,29.66,NNE,17,0.0,2.0,88,0.00,,,0.13,Wunderground v.1.15,2013-07-29 13:05:00,
2013-07-29 09:15:00,70.3,64.9,29.66,NE,41,2.0,4.0,83,0.00,,,0.13,Wunderground v.1.15,2013-07-29 13:15:00,
2013-07-29 09:24:00,69.6,63.9,29.66,NE,49,1.0,2.0,82,0.00,,,0.13,Wunderground v.1.15,2013-07-29 13:24:00,
2013-07-29 09:30:00,69.6,64.2,29.66,NE,49,1.0,1.0,83,0.00,,,0.13,Wunderground v.1.15,2013-07-29 13:30:00,
2013-07-29 09:40:00,69.2,64.2,29.66,NE,49,0.0,0.0,84,0.00,,,0.13,Wunderground v.1.15,2013-07-29 13:40:00,
2013-07-29 09:50:00,70.4,64.3,29.67,NE,49,0.0,0.0,81,0.00,,,0.13,Wunderground v.1.15,2013-07-29 13:50:00,
2013-07-29 09:55:00,70.8,64.7,29.67,ENE,62,0.0,1.0,81,0.00,,,0.13,Wunderground v.1.15,2013-07-29 13:55:00,
2013-07-29 10:00:00,70.8,63.6,29.66,North,350,1.0,1.0,78,0.00,,,0.13,Wunderground v.1.15,2013-07-29 14:00:00,
2013-07-29 10:10:00,70.8,64.3,29.67,WSW,257,0.0,0.0,80,0.00,,,0.13,Wunderground v.1.15,2013-07-29 14:10:00,
2013-07-29 10:20:00,70.9,63.3,29.67,WSW,257,0.0,0.0,77,0.00,,,0.13,Wunderground v.1.15,2013-07-29 14:20:00,
2013-07-29 10:29:00,71.4,66.0,29.66,NE,35,0.0,0.0,83,0.00,,,0.13,Wunderground v.1.15,2013-07-29 14:29:00,
2013-07-29 10:35:00,71.6,65.5,29.66,NE,35,0.0,1.0,81,0.00,,,0.13,Wunderground v.1.15,2013-07-29 14:35:00,
2013-07-29 10:45:00,73.0,66.8,29.66,SE,129,0.0,0.0,81,0.00,,,0.13,Wunderground v.1.15,2013-07-29 14:45:00,
2013-07-29 10:50:00,73.7,67.1,29.66,East,90,1.0,3.0,80,0.00,,,0.13,Wunderground v.1.15,2013-07-29 14:50:00,
2013-07-29 11:00:00,74.0,67.4,29.66,SE,128,3.0,3.0,80,0.00,,,0.13,Wunderground v.1.15,2013-07-29 15:00:00,
2013-07-29 11:05:00,74.3,66.6,29.65,East,101,2.0,3.0,77,0.00,,,0.13,Wunderground v.1.15,2013-07-29 15:05:00,
2013-07-29 11:10:00,74.6,67.3,29.65,SSE,159,2.0,2.0,78,0.00,,,0.13,Wunderground v.1.15,2013-07-29 15:10:00,
2013-07-29 11:15:00,74.6,67.3,29.65,SSW,196,2.0,2.0,78,0.00,,,0.13,Wunderground v.1.15,2013-07-29 15:15:00,
2013-07-29 11:20:00,74.3,66.2,29.66,ESE,121,2.0,2.0,76,0.00,,,0.13,Wunderground v.1.15,2013-07-29 15:20:00,
2013-07-29 11:30:00,73.2,64.8,29.65,North,5,2.0,2.0,75,0.00,,,0.13,Wunderground v.1.15,2013-07-29 15:30:00,
2013-07-29 11:40:00,71.6,64.7,29.65,NNW,329,2.0,2.0,79,0.00,,,0.13,Wunderground v.1.15,2013-07-29 15:40:00,
2013-07-29 11:45:00,71.1,65.0,29.65,NNW,329,1.0,3.0,81,0.00,,,0.13,Wunderground v.1.15,2013-07-29 15:45:00,
2013-07-29 11:50:00,70.5,64.0,29.65,WNW,296,1.0,1.0,80,0.00,,,0.13,Wunderground v.1.15,2013-07-29 15:50:00,
2013-07-29 12:00:00,70.2,64.1,29.64,WNW,292,2.0,2.0,81,0.00,,,0.13,Wunderground v.1.15,2013-07-29 16:00:00,
2013-07-29 12:04:00,70.2,63.7,29.64,WNW,292,2.0,2.0,80,0.00,,,0.13,Wunderground v.1.15,2013-07-29 16:04:00,
2013-07-29 12:15:00,70.8,66.4,29.64,WNW,292,0.0,2.0,86,0.00,,,0.13,Wunderground v.1.15,2013-07-29 16:15:00,
2013-07-29 12:20:00,71.3,65.9,29.64,ESE,119,1.0,1.0,83,0.00,,,0.13,Wunderground v.1.15,2013-07-29 16:20:00,
2013-07-29 12:25:00,71.6,65.8,29.64,East,88,2.0,2.0,82,0.00,,,0.13,Wunderground v.1.15,2013-07-29 16:25:00,
2013-07-29 12:30:00,71.8,63.8,29.64,East,88,1.0,1.0,76,0.00,,,0.13,Wunderground v.1.15,2013-07-29 16:30:00,
2013-07-29 12:35:00,72.0,64.0,29.65,East,86,0.0,1.0,76,0.00,,,0.13,Wunderground v.1.15,2013-07-29 16:35:00,
2013-07-29 12:40:00,72.0,65.5,29.65,ENE,66,1.0,1.0,80,0.00,,,0.13,Wunderground v.1.15,2013-07-29 16:40:00,
2013-07-29 12:50:00,71.2,64.4,29.65,ESE,110,1.0,1.0,79,0.00,,,0.13,Wunderground v.1.15,2013-07-29 16:50:00,
2013-07-29 13:00:00,70.7,64.6,29.65,East,79,0.0,0.0,81,0.00,,,0.13,Wunderground v.1.15,2013-07-29 17:00:00,
2013-07-29 13:10:00,70.9,64.8,29.65,East,88,0.0,0.0,81,0.00,,,0.13,Wunderground v.1.15,2013-07-29 17:10:00,
2013-07-29 13:25:00,71.5,65.0,29.65,East,88,0.0,0.0,80,0.00,,,0.13,Wunderground v.1.15,2013-07-29 17:25:00,
2013-07-29 13:30:00,71.9,65.0,29.65,East,88,0.0,1.0,79,0.00,,,0.13,Wunderground v.1.15,2013-07-29 17:30:00,
2013-07-29 13:40:00,72.6,65.3,29.65,East,94,1.0,1.0,78,0.00,,,0.13,Wunderground v.1.15,2013-07-29 17:40:00,
2013-07-29 13:50:00,73.2,65.6,29.64,East,94,0.0,0.0,77,0.00,,,0.13,Wunderground v.1.15,2013-07-29 17:50:00,
2013-07-29 14:00:00,74.8,67.5,29.64,WNW,298,1.0,3.0,78,0.00,,,0.13,Wunderground v.1.15,2013-07-29 18:00:00,
2013-07-29 14:10:00,76.2,65.3,29.64,South,179,2.0,2.0,69,0.00,,,0.13,Wunderground v.1.15,2013-07-29 18:10:00,
2013-07-29 14:20:00,77.3,59.9,29.64,West,268,3.0,7.0,55,0.00,,,0.13,Wunderground v.1.15,2013-07-29 18:20:00,
2013-07-29 14:30:00,76.9,60.5,29.64,SSW,209,4.0,4.0,57,0.00,,,0.13,Wunderground v.1.15,2013-07-29 18:30:00,
2013-07-29 14:40:00,76.3,59.9,29.63,SW,221,5.0,5.0,57,0.00,,,0.13,Wunderground v.1.15,2013-07-29 18:40:00,
2013-07-29 14:50:00,76.9,56.8,29.62,SW,231,4.0,4.0,50,0.00,,,0.13,Wunderground v.1.15,2013-07-29 18:50:00,
2013-07-29 14:55:00,77.4,56.7,29.62,West,275,5.0,6.0,49,0.00,,,0.13,Wunderground v.1.15,2013-07-29 18:55:00,
2013-07-29 15:05:00,78.4,57.7,29.62,South,188,4.0,6.0,49,0.00,,,0.13,Wunderground v.1.15,2013-07-29 19:05:00,
2013-07-29 15:10:00,78.3,56.4,29.62,West,261,4.0,11.0,47,0.00,,,0.13,Wunderground v.1.15,2013-07-29 19:10:00,
2013-07-29 15:20:00,77.8,55.4,29.62,West,273,6.0,6.0,46,0.00,,,0.13,Wunderground v.1.15,2013-07-29 19:20:00,
2013-07-29 15:35:00,78.2,55.7,29.62,WSW,241,5.0,8.0,46,0.00,,,0.13,Wunderground v.1.15,2013-07-29 19:35:00,
2013-07-29 15:40:00,78.3,57.0,29.62,West,271,5.0,10.0,48,0.00,,,0.13,Wunderground v.1.15,2013-07-29 19:40:00,
2013-07-29 15:55:00,78.2,55.7,29.62,West,281,4.0,6.0,46,0.00,,,0.13,Wunderground v.1.15,2013-07-29 19:55:00,
2013-07-29 16:00:00,77.9,55.5,29.62,WNW,293,5.0,10.0,46,0.00,,,0.13,Wunderground v.1.15,2013-07-29 20:00:00,
2013-07-29 16:10:00,77.5,55.7,29.62,South,182,7.0,7.0,47,0.00,,,0.13,Wunderground v.1.15,2013-07-29 20:10:00,
2013-07-29 16:15:00,77.3,55.5,29.63,WSW,240,6.0,9.0,47,0.00,,,0.13,Wunderground v.1.15,2013-07-29 20:15:00,
2013-07-29 16:25:00,77.3,54.3,29.63,West,277,7.0,7.0,45,0.00,,,0.13,Wunderground v.1.15,2013-07-29 20:25:00,
2013-07-29 16:35:00,77.1,55.3,29.63,West,265,6.0,7.0,47,0.00,,,0.13,Wunderground v.1.15,2013-07-29 20:35:00,
2013-07-29 16:40:00,77.4,55.6,29.63,WNW,288,4.0,4.0,47,0.00,,,0.13,Wunderground v.1.15,2013-07-29 20:40:00,
2013-07-29 16:50:00,77.1,55.3,29.64,West,268,5.0,5.0,47,0.00,,,0.13,Wunderground v.1.15,2013-07-29 20:50:00,
2013-07-29 17:00:00,76.9,53.3,29.64,South,190,6.0,6.0,44,0.00,,,0.13,Wunderground v.1.15,2013-07-29 21:00:00,
2013-07-29 17:10:00,76.8,56.2,29.64,West,279,4.0,4.0,49,0.00,,,0.13,Wunderground v.1.15,2013-07-29 21:10:00,
2013-07-29 17:20:00,76.6,56.6,29.64,NW,310,5.0,8.0,50,0.00,,,0.13,Wunderground v.1.15,2013-07-29 21:20:00,
2013-07-29 17:30:00,76.8,58.4,29.64,West,273,4.0,4.0,53,0.00,,,0.13,Wunderground v.1.15,2013-07-29 21:30:00,
2013-07-29 17:40:00,76.3,56.3,29.64,WSW,252,4.0,8.0,50,0.00,,,0.13,Wunderground v.1.15,2013-07-29 21:40:00,
2013-07-29 17:50:00,76.4,57.5,29.64,WSW,257,4.0,5.0,52,0.00,,,0.13,Wunderground v.1.15,2013-07-29 21:50:00,
2013-07-29 17:55:00,76.0,54.9,29.64,WNW,293,4.0,5.0,48,0.00,,,0.13,Wunderground v.1.15,2013-07-29 21:55:00,
2013-07-29 18:00:00,75.8,55.3,29.64,West,259,5.0,5.0,49,0.00,,,0.13,Wunderground v.1.15,2013-07-29 22:00:00,
2013-07-29 18:15:00,75.6,55.1,29.63,WNW,296,4.0,5.0,49,0.00,,,0.13,Wunderground v.1.15,2013-07-29 22:15:00,
2013-07-29 18:30:00,75.4,54.3,29.63,NW,307,3.0,3.0,48,0.00,,,0.13,Wunderground v.1.15,2013-07-29 22:30:00,
2013-07-29 18:40:00,75.2,55.8,29.63,SW,221,2.0,2.0,51,0.00,,,0.13,Wunderground v.1.15,2013-07-29 22:40:00,
2013-07-29 18:50:00,74.7,54.3,29.64,WSW,252,3.0,3.0,49,0.00,,,0.13,Wunderground v.1.15,2013-07-29 22:50:00,
2013-07-29 19:00:00,74.1,53.7,29.64,WNW,288,3.0,3.0,49,0.00,,,0.13,Wunderground v.1.15,2013-07-29 23:00:00,
2013-07-29 19:10:00,73.1,53.9,29.65,WNW,296,4.0,4.0,51,0.00,,,0.13,Wunderground v.1.15,2013-07-29 23:10:00,
2013-07-29 19:20:00,72.2,54.1,29.65,WNW,297,3.0,3.0,53,0.00,,,0.13,Wunderground v.1.15,2013-07-29 23:20:00,
2013-07-29 19:30:00,71.3,53.8,29.66,WNW,288,3.0,3.0,54,0.00,,,0.13,Wunderground v.1.15,2013-07-29 23:30:00,
2013-07-29 19:40:00,70.6,54.1,29.66,West,279,2.0,2.0,56,0.00,,,0.13,Wunderground v.1.15,2013-07-29 23:40:00,
2013-07-29 19:54:00,69.9,54.0,29.67,WNW,296,2.0,3.0,57,0.00,,,0.13,Wunderground v.1.15,2013-07-29 23:54:00,
2013-07-29 20:00:00,69.8,54.4,29.67,North,355,3.0,3.0,58,0.00,,,0.13,Wunderground v.1.15,2013-07-30 00:00:00,
2013-07-29 20:10:00,67.4,55.2,29.67,North,360,1.0,1.0,65,0.00,,,0.13,Wunderground v.1.15,2013-07-30 00:10:00,
2013-07-29 20:20:00,67.1,56.2,29.68,NW,306,1.0,1.0,68,0.00,,,0.13,Wunderground v.1.15,2013-07-30 00:20:00,
2013-07-29 20:30:00,67.3,56.4,29.68,NW,323,1.0,1.0,68,0.00,,,0.13,Wunderground v.1.15,2013-07-30 00:30:00,
2013-07-29 20:40:00,66.7,56.6,29.68,NNW,333,1.0,1.0,70,0.00,,,0.13,Wunderground v.1.15,2013-07-30 00:40:00,
2013-07-29 20:55:00,66.3,57.0,29.69,NNW,334,2.0,3.0,72,0.00,,,0.13,Wunderground v.1.15,2013-07-30 00:55:00,
2013-07-29 21:00:00,66.4,56.7,29.69,NNW,333,2.0,2.0,71,0.00,,,0.13,Wunderground v.1.15,2013-07-30 01:00:00,
2013-07-29 21:15:00,66.2,56.9,29.70,NNW,342,3.0,4.0,72,0.00,,,0.13,Wunderground v.1.15,2013-07-30 01:15:00,
2013-07-29 21:20:00,66.1,57.2,29.70,NW,309,3.0,7.0,73,0.00,,,0.13,Wunderground v.1.15,2013-07-30 01:20:00,
2013-07-29 21:25:00,66.0,57.1,29.70,NW,317,3.0,7.0,73,0.00,,,0.13,Wunderground v.1.15,2013-07-30 01:25:00,
2013-07-29 21:30:00,65.9,57.4,29.70,WNW,292,4.0,6.0,74,0.00,,,0.13,Wunderground v.1.15,2013-07-30 01:30:00,
2013-07-29 21:45:00,65.9,57.4,29.70,NNW,335,2.0,5.0,74,0.00,,,0.13,Wunderground v.1.15,2013-07-30 01:45:00,
2013-07-29 21:50:00,65.9,57.4,29.70,NNW,333,2.0,2.0,74,0.00,,,0.13,Wunderground v.1.15,2013-07-30 01:50:00,
2013-07-29 21:55:00,65.6,57.5,29.70,NNW,336,2.0,2.0,75,0.00,,,0.13,Wunderground v.1.15,2013-07-30 01:55:00,
2013-07-29 22:00:00,65.2,57.4,29.70,NNW,336,1.0,2.0,76,0.00,,,0.13,Wunderground v.1.15,2013-07-30 02:00:00,
2013-07-29 22:15:00,63.8,57.5,29.71,NNW,336,0.0,0.0,80,0.00,,,0.13,Wunderground v.1.15,2013-07-30 02:15:00,
2013-07-29 22:25:00,63.2,57.6,29.71,NNW,336,0.0,0.0,82,0.00,,,0.13,Wunderground v.1.15,2013-07-30 02:25:00,
2013-07-29 22:30:00,62.8,57.6,29.71,NNW,336,0.0,0.0,83,0.00,,,0.13,Wunderground v.1.15,2013-07-30 02:30:00,
2013-07-29 22:35:00,62.5,57.6,29.71,NNW,336,0.0,0.0,84,0.00,,,0.13,Wunderground v.1.15,2013-07-30 02:35:00,
2013-07-29 22:45:00,62.0,57.4,29.71,NNW,336,0.0,0.0,85,0.00,,,0.13,Wunderground v.1.15,2013-07-30 02:45:00,
2013-07-29 22:50:00,62.0,57.4,29.71,NNW,336,0.0,0.0,85,0.00,,,0.13,Wunderground v.1.15,2013-07-30 02:50:00,
2013-07-29 22:59:00,62.0,57.4,29.71,NNW,336,1.0,1.0,85,0.00,,,0.13,Wunderground v.1.15,2013-07-30 02:59:00,
2013-07-29 23:05:00,62.2,57.6,29.71,NNW,336,0.0,1.0,85,0.00,,,0.13,Wunderground v.1.15,2013-07-30 03:05:00,
2013-07-29 23:15:00,62.2,58.0,29.71,NNW,336,0.0,0.0,86,0.00,,,0.13,Wunderground v.1.15,2013-07-30 03:15:00,
2013-07-29 23:25:00,62.1,58.2,29.71,NNW,336,0.0,0.0,87,0.00,,,0.13,Wunderground v.1.15,2013-07-30 03:25:00,
2013-07-29 23:30:00,61.9,58.0,29.71,NNW,336,0.0,0.0,87,0.00,,,0.13,Wunderground v.1.15,2013-07-30 03:30:00,
2013-07-29 23:40:00,61.7,57.8,29.72,NNW,336,0.0,0.0,87,0.00,,,0.13,Wunderground v.1.15,2013-07-30 03:40:00,
2013-07-29 23:50:00,61.7,58.1,29.72,NNW,336,0.0,0.0,88,0.00,,,0.13,Wunderground v.1.15,2013-07-30 03:50:00,